FW3015 Weather Reports


time (UTC)temp
F
wind
direction
speed
knots
gust
knots
rain 1hr
in
rain 24hr
in
rain mn
in
humidity
%
barometer
mb
20260507155003 58 4 2.6 5.2 0.00 0.83 0.23 64 1003.8
20260507154503 58 13 3.5 7.8 0.00 0.83 0.23 67 1003.8
20260507154213 58 14 4.3 7.8 0.00 0.83 0.23 66 1003.8
20260507153713 58 12 2.6 7.0 0.00 0.83 0.23 68 1003.8
20260507153004 57 360 2.6 7.8 0.00 0.83 0.23 67 1004.0
20260507152503 57 358 4.3 10.4 0.00 0.83 0.23 68 1004.1
20260507152213 57 353 4.3 10.4 0.00 0.83 0.23 65 1004.1
20260507151504 56 351 6.1 12.2 0.00 0.83 0.23 66 1004.1
20260507151003 56 355 6.1 10.4 0.00 0.83 0.23 70 1004.0
20260507150503 56 353 4.3 8.7 0.00 0.83 0.23 70 1004.0
20260507150003 56 350 5.2 10.4 0.00 0.83 0.23 68 1004.0
20260507145503 56 351 6.1 10.4 0.00 0.83 0.23 70 1004.1
20260507145003 56 345 3.5 9.6 0.00 0.83 0.23 70 1004.2
20260507144503 56 337 2.6 6.1 0.00 0.83 0.23 72 1004.2
20260507144213 56 341 2.6 7.0 0.00 0.83 0.23 71 1004.3
20260507143714 56 343 2.6 7.0 0.00 0.83 0.23 71 1004.3
20260507143003 56 334 2.6 7.8 0.00 0.83 0.23 72 1004.4
20260507142504 55 342 3.5 7.8 0.00 0.83 0.23 74 1004.6
20260507142003 55 345 3.5 7.0 0.00 0.83 0.23 75 1004.5
20260507141503 55 338 2.6 7.8 0.00 0.83 0.23 76 1004.5
20260507141003 54 332 3.5 7.8 0.00 0.83 0.23 76 1004.7
20260507140503 54 337 3.5 8.7 0.00 0.83 0.23 78 1004.8
20260507140004 54 341 3.5 8.7 0.00 0.83 0.23 77 1004.8
20260507135503 54 339 1.7 4.3 0.00 0.83 0.23 79 1004.7
20260507135003 53 338 1.7 4.3 0.00 0.83 0.23 81 1004.7
20260507134503 53 337 1.7 6.1 0.00 0.83 0.23 81 1005.0
20260507134003 52 344 2.6 7.0 0.00 0.83 0.23 81 1005.1
20260507133503 52 349 3.5 7.0 0.00 0.83 0.23 82 1005.1
20260507133003 52 351 4.3 13.0 0.00 0.83 0.23 82 1005.2
20260507132503 51 350 7.8 16.5 0.00 0.83 0.23 83 1005.2
20260507132003 51 349 10.4 16.5 0.00 0.83 0.23 84 1004.9
20260507131505 51 350 10.4 18.2 0.00 0.83 0.23 85 1005.0
20260507131003 50 349 9.6 18.2 0.00 0.83 0.23 85 1004.9
20260507130503 50 345 8.7 14.8 0.00 0.83 0.23 86 1005.1
20260507130004 50 345 8.7 15.6 0.00 0.83 0.23 87 1005.1
20260507125503 49 348 9.6 16.5 0.00 0.83 0.23 88 1005.0
20260507125003 49 352 7.0 16.5 0.00 0.83 0.23 89 1004.6
20260507124713 49 353 6.1 11.3 0.00 0.83 0.23 90 1004.8
20260507124003 48 351 5.2 9.6 0.00 0.83 0.23 90 1004.8
20260507123504 48 343 4.3 9.6 0.00 0.83 0.23 91 1004.8
20260507123004 48 340 4.3 7.0 0.00 0.83 0.23 91 1004.5
20260507122503 48 340 3.5 7.0 0.00 0.83 0.23 92 1004.4
20260507122214 47 342 3.5 7.0 0.00 0.83 0.23 92 1004.3
20260507121504 47 351 2.6 7.0 0.00 0.83 0.23 92 1004.9
20260507121003 47 345 1.7 6.1 0.00 0.83 0.23 93 1004.5
20260507120503 47 340 2.6 7.0 0.00 0.83 0.23 93 1004.9
20260507120004 47 344 3.5 7.8 0.00 0.83 0.23 93 1005.3
20260507115503 47 346 5.2 8.7 0.00 0.83 0.23 93 1005.5
20260507115214 47 345 5.2 8.7 0.00 0.83 0.23 94 1005.0
20260507114503 47 336 2.6 7.0 0.00 0.83 0.23 94 1004.8
20260507114214 47 336 2.6 7.0 0.00 0.83 0.23 94 1005.2
20260507113503 47 337 0.9 4.3 0.00 0.83 0.23 94 1005.9
20260507113003 47 337 0.9 3.5 0.00 0.83 0.23 94 1005.4
20260507112503 47 337 0.9 3.5 0.00 0.83 0.23 94 1005.6
20260507112003 47 337 0.9 4.3 0.00 0.83 0.23 94 1005.7
20260507111503 47 337 1.7 6.1 0.00 0.83 0.23 94 1005.5
20260507111003 46 337 2.6 6.1 0.00 0.83 0.23 94 1005.2
20260507110503 46 333 3.5 7.8 0.00 0.83 0.23 94 1005.1
20260507110003 46 334 3.5 7.8 0.00 0.83 0.23 94 1005.0
20260507105713 46 335 3.5 7.8 0.00 0.83 0.23 94 1005.3
20260507105003 46 341 2.6 7.8 0.00 0.83 0.23 94 1005.2
20260507104504 46 339 2.6 6.1 0.00 0.83 0.23 95 1004.4
20260507104005 46 337 3.5 7.8 0.00 0.83 0.23 95 1004.8
20260507103713 46 338 3.5 8.7 0.00 0.83 0.23 95 1004.8
20260507103213 46 345 5.2 9.6 0.00 0.83 0.23 95 1004.8
20260507102503 47 346 4.3 9.6 0.00 0.83 0.23 95 1004.4
20260507102003 47 343 2.6 7.0 0.00 0.83 0.23 95 1004.2
20260507101503 47 343 1.7 7.0 0.00 0.83 0.23 96 1004.5
20260507101003 47 343 1.7 5.2 0.00 0.83 0.23 96 1004.4
20260507100503 47 343 2.6 5.2 0.00 0.83 0.23 96 1004.5
20260507100003 47 343 3.5 7.8 0.00 0.83 0.23 96 1004.3
20260507095503 47 346 5.2 7.8 0.00 0.83 0.23 96 1004.3
20260507095003 47 349 5.2 9.6 0.00 0.83 0.23 96 1003.9
20260507094503 47 351 7.0 10.4 0.00 0.83 0.23 96 1004.2
20260507094003 47 349 7.8 10.4 0.00 0.83 0.23 96 1004.0
20260507093504 47 342 7.0 10.4 0.00 0.83 0.23 96 1004.1
20260507093003 47 335 7.0 11.3 0.00 0.83 0.23 96 1004.4
20260507092503 47 333 7.8 12.2 0.00 0.83 0.23 96 1004.7
20260507092003 48 331 7.0 13.9 0.00 0.83 0.23 96 1004.5
20260507091503 48 324 5.2 13.9 0.00 0.83 0.23 96 1004.4
20260507091003 48 324 4.3 8.7 0.00 0.83 0.23 97 1004.7
20260507090714 48 326 4.3 8.7 0.00 0.83 0.23 97 1004.5
20260507090004 48 333 4.3 8.7 0.00 0.83 0.23 97 1004.4
20260507085503 48 339 4.3 8.7 0.00 0.83 0.23 97 1004.0
20260507085004 48 342 5.2 10.4 0.00 0.83 0.23 97 1003.8
20260507084504 48 346 7.0 10.4 0.00 0.83 0.23 97 1003.5
20260507084213 48 346 7.0 10.4 0.00 0.83 0.23 97 1003.7
20260507083503 48 348 5.2 11.3 0.00 0.83 0.23 97 1003.7
20260507083003 48 349 7.0 11.3 0.01 0.83 0.23 97 1003.8
20260507082503 48 349 8.7 13.9 0.01 0.83 0.23 97 1003.8
20260507082003 48 348 9.6 13.9 0.01 0.83 0.23 97 1003.8
20260507081503 48 347 9.6 13.0 0.01 0.83 0.23 97 1003.8
20260507081003 49 346 8.7 13.0 0.01 0.83 0.23 97 1003.7
20260507080503 49 343 7.8 13.0 0.01 0.83 0.23 97 1003.6
20260507080005 49 339 5.2 11.3 0.01 0.83 0.23 98 1003.5
20260507075503 49 341 4.3 7.8 0.01 0.83 0.23 98 1003.3
20260507075003 49 343 4.3 7.8 0.01 0.83 0.23 98 1003.3
20260507074503 49 341 3.5 7.0 0.02 0.83 0.23 98 1003.5
20260507074214 49 342 3.5 8.7 0.02 0.83 0.23 97 1003.4
20260507073503 50 339 6.1 9.6 0.02 0.83 0.23 97 1003.2
20260507073003 50 338 6.1 9.6 0.01 0.82 0.22 97 1003.1
20260507072503 50 337 5.2 8.7 0.01 0.82 0.22 97 1003.2
20260507072003 50 334 4.3 8.7 0.01 0.82 0.22 97 1003.2
20260507071504 50 332 4.3 7.8 0.02 0.82 0.22 98 1003.0
20260507071003 50 327 3.5 7.0 0.05 0.82 0.22 98 1002.9
20260507070504 50 322 3.5 7.8 0.10 0.82 0.22 98 1003.0
20260507070005 50 321 3.5 7.8 0.13 0.82 0.22 98 1003.0
20260507065503 50 310 2.6 7.8 0.21 0.82 0.22 98 1003.0
20260507065003 50 297 1.7 7.8 0.21 0.82 0.22 98 1003.1
20260507064503 50 284 0.9 3.5 0.20 0.81 0.21 97 1002.8
20260507064003 50 280 0.9 3.5 0.20 0.81 0.21 97 1002.7
20260507063503 50 278 0.9 5.2 0.20 0.81 0.21 97 1002.4
20260507063003 50 282 0.9 6.1 0.20 0.81 0.21 97 1002.9
20260507062503 50 289 0.9 7.0 0.20 0.81 0.21 97 1002.8
20260507062003 50 312 2.6 8.7 0.21 0.81 0.21 97 1002.7
20260507061503 50 311 4.3 9.6 0.20 0.80 0.20 97 1002.7
20260507061004 50 284 3.5 9.6 0.17 0.77 0.17 97 1002.9
20260507060503 50 254 2.6 9.6 0.12 0.72 0.12 97 1004.3
20260507060003 50 238 2.6 10.4 0.09 0.69 0.09 97 1003.9
20260507055503 50 223 2.6 10.4 0.01 0.61 0.01 97 1003.0
20260507055003 50 221 3.5 11.3 0.01 0.61 0.01 97 1002.8
20260507054503 50 225 3.5 11.3 0.01 0.61 0.01 97 1002.8
20260507054003 50 228 3.5 9.6 0.01 0.61 0.01 97 1002.7
20260507053504 50 230 4.3 13.0 0.01 0.61 0.01 97 1002.8
20260507053004 50 229 4.3 13.9 0.01 0.61 0.01 97 1002.7
20260507052713 50 225 4.3 13.9 0.01 0.61 0.01 97 1003.0
20260507052003 50 234 4.3 12.2 0.00 0.60 0.00 97 1003.0
20260507051503 50 241 4.3 12.2 0.00 0.60 0.00 97 1003.1
20260507051003 50 238 2.6 10.4 0.00 0.60 0.00 97 1003.1
20260507050713 50 219 2.6 10.4 0.00 0.60 0.00 97 1003.0
20260507050003 50 206 3.5 10.4 0.00 0.60 0.00 97 1002.9
20260507045503 50 215 4.3 11.3 0.00 0.60 0.00 97 1002.9
20260507045214 50 210 4.3 11.3 0.00 0.60 0.00 97 1003.0
20260507044712 50 200 5.2 11.3 0.00 0.60 0.00 97 1002.8
20260507044003 50 217 3.5 13.0 0.00 0.60 0.00 97 1003.0
20260507043503 50 230 2.6 12.2 0.01 0.60 0.00 97 1002.9
20260507043003 51 212 4.3 13.9 0.01 0.60 0.00 97 1003.0
20260507042714 51 212 5.2 14.8 0.01 0.60 0.00 97 1003.1
20260507042003 51 220 4.3 14.8 0.01 0.60 0.00 97 1003.3
20260507041503 51 216 4.3 14.8 0.02 0.60 0.00 97 1003.3
20260507041003 51 213 6.1 14.8 0.02 0.60 0.00 97 1003.3
20260507040504 51 214 6.1 21.7 0.03 0.60 0.00 96 1003.4
20260507040215 51 215 6.1 21.7 0.03 0.60 0.00 97 1003.4
20260507035503 52 216 6.1 18.2 0.04 0.60 0.60 96 1003.4
20260507035003 52 213 6.1 14.8 0.05 0.60 0.60 96 1003.5
20260507034503 52 213 5.2 13.9 0.06 0.60 0.60 97 1003.5
20260507034003 52 210 6.1 17.4 0.07 0.60 0.60 97 1003.5
20260507033503 52 208 7.0 17.4 0.08 0.59 0.59 97 1003.6
20260507033003 52 204 6.1 15.6 0.10 0.59 0.59 97 1003.7
20260507032504 52 210 5.2 19.1 0.11 0.59 0.59 97 1003.8
20260507032003 52 209 5.2 19.1 0.11 0.59 0.59 97 1003.9
20260507031503 52 202 5.2 18.2 0.11 0.58 0.58 97 1003.9
20260507031003 52 203 5.2 12.2 0.12 0.58 0.58 96 1004.0
20260507030504 52 202 5.2 11.3 0.13 0.57 0.57 96 1004.0
20260507030003 52 203 5.2 13.9 0.15 0.57 0.57 96 1004.1
20260507025503 52 204 6.1 13.9 0.15 0.56 0.56 96 1004.1
20260507025003 53 202 5.2 14.8 0.15 0.55 0.55 96 1004.3
20260507024504 53 200 4.3 14.8 0.15 0.54 0.54 96 1004.3
20260507024003 53 205 3.5 7.8 0.16 0.53 0.53 96 1004.3
20260507023503 53 202 3.5 10.4 0.17 0.51 0.51 96 1004.4
20260507023213 53 199 4.3 12.2 0.17 0.50 0.50 96 1004.7
20260507022714 53 193 6.1 14.8 0.16 0.48 0.48 96 1004.3
20260507022003 53 197 6.1 14.8 0.17 0.48 0.48 96 1004.5
20260507021714 53 197 6.1 13.9 0.17 0.47 0.47 96 1004.6
20260507021003 53 199 5.2 15.6 0.16 0.46 0.46 96 1004.9
20260507020504 53 200 5.2 15.6 0.15 0.44 0.44 96 1004.8
20260507020003 53 198 6.1 18.2 0.14 0.42 0.42 96 1005.0
20260507015503 53 198 7.0 18.2 0.15 0.41 0.41 96 1005.4
20260507015004 53 198 6.1 16.5 0.15 0.40 0.40 96 1005.7
20260507014503 53 204 6.1 16.5 0.16 0.39 0.39 96 1005.5
20260507014214 53 205 5.2 15.6 0.15 0.37 0.38 96 1005.8
20260507013713 53 197 6.1 15.6 0.14 0.35 0.35 96 1005.9
20260507013214 53 203 6.1 19.1 0.13 0.33 0.33 96 1006.0
20260507012713 53 203 7.0 19.1 0.14 0.32 0.32 96 1006.0
20260507012004 53 200 7.8 18.2 0.16 0.31 0.31 96 1006.2
20260507011503 53 198 5.2 12.2 0.17 0.30 0.30 96 1006.2
20260507011214 53 200 5.2 13.0 0.18 0.30 0.30 96 1006.2
20260507010503 53 201 4.3 13.0 0.19 0.29 0.29 96 1006.2
20260507010003 53 196 4.3 12.2 0.20 0.28 0.28 96 1006.3
20260507005503 53 191 3.5 10.4 0.19 0.26 0.26 96 1006.5
20260507005003 53 190 5.2 12.2 0.18 0.25 0.25 96 1006.6
20260507004503 53 191 5.2 13.0 0.16 0.23 0.23 96 1006.7
20260507004003 53 192 4.3 13.0 0.16 0.22 0.22 95 1006.9
20260507003503 53 201 3.5 10.4 0.14 0.20 0.20 95 1006.8
20260507003003 53 202 3.5 8.7 0.13 0.19 0.19 95 1007.0
20260507002503 53 191 4.3 10.4 0.11 0.17 0.17 95 1007.1
20260507002214 53 189 4.3 10.4 0.11 0.16 0.16 95 1007.0
20260507001503 53 191 3.5 13.9 0.08 0.13 0.13 95 1007.1
20260507001003 53 192 5.2 14.8 0.06 0.11 0.11 95 1007.0
20260507000503 53 197 5.2 14.8 0.05 0.10 0.10 95 1007.3
20260507000003 53 205 4.3 11.3 0.03 0.08 0.08 95 1007.3
20260506235503 53 193 4.3 11.3 0.03 0.07 0.07 95 1007.5
20260506235003 53 183 3.5 9.6 0.03 0.07 0.07 95 1007.2
20260506234503 53 185 1.7 9.6 0.03 0.07 0.07 95 1007.1
20260506234003 53 193 2.6 7.8 0.03 0.06 0.06 95 1007.2
20260506233504 53 190 3.5 8.7 0.03 0.06 0.06 95 1007.3
20260506233003 53 194 3.5 11.3 0.03 0.06 0.06 95 1007.4
20260506232503 53 200 4.3 11.3 0.04 0.06 0.06 94 1007.4
20260506232003 53 202 4.3 10.4 0.03 0.05 0.05 94 1007.6
20260506231712 53 203 4.3 10.4 0.03 0.05 0.05 94 1007.7
20260506231003 53 187 4.3 12.2 0.04 0.05 0.05 94 1006.8
20260506230503 53 192 4.3 15.6 0.04 0.05 0.05 94 1007.1
20260506230003 53 196 5.2 15.6 0.04 0.05 0.05 94 1007.5
20260506225503 53 192 5.2 12.2 0.03 0.04 0.04 94 1007.5
20260506225004 53 200 4.3 10.4 0.04 0.04 0.04 94 1007.9
20260506224714 53 195 5.2 15.6 0.04 0.04 0.04 94 1007.6
20260506224003 53 182 5.2 15.6 0.03 0.03 0.03 93 1007.5
20260506223503 53 175 3.5 9.6 0.03 0.03 0.03 93 1007.6
20260506223003 54 190 3.5 8.7 0.03 0.03 0.03 93 1007.8
20260506222503 54 197 4.3 11.3 0.02 0.02 0.02 93 1008.1
20260506222005 54 203 5.2 12.2 0.02 0.02 0.02 93 1008.3
20260506221504 54 206 5.2 13.0 0.01 0.01 0.01 93 1008.3
20260506221003 54 203 4.3 13.0 0.01 0.01 0.01 92 1008.3
20260506220503 54 201 2.6 8.7 0.01 0.01 0.01 92 1008.6
20260506220003 54 199 3.5 11.3 0.01 0.01 0.01 92 1008.4
20260506215714 54 196 4.3 11.3 0.01 0.01 0.01 92 1008.2
20260506215003 54 194 4.3 13.9 0.00 0.00 0.00 91 1008.3
20260506214714 54 198 4.3 13.9 0.00 0.00 0.00 91 1008.2
20260506214215 54 204 4.3 10.4 0.00 0.00 0.00 91 1008.2
20260506213503 54 202 6.1 14.8 0.00 0.00 0.00 90 1008.4
20260506213003 54 202 5.2 14.8 0.00 0.00 0.00 90 1008.5
20260506212504 54 210 3.5 14.8 0.00 0.00 0.00 89 1008.2
20260506212212 54 210 5.2 14.8 0.00 0.00 0.00 89 1008.4
20260506211503 55 205 6.1 15.6 0.00 0.00 0.00 89 1008.7
20260506211213 55 207 5.2 15.6 0.00 0.00 0.00 88 1008.8
20260506210714 55 203 5.2 11.3 0.00 0.00 0.00 88 1008.9
20260506210004 55 210 5.2 16.5 0.00 0.00 0.00 87 1008.7
20260506205503 55 215 6.1 16.5 0.00 0.00 0.00 87 1008.7
20260506205003 56 222 5.2 14.8 0.00 0.00 0.00 86 1008.2
20260506204503 56 230 4.3 13.0 0.00 0.00 0.00 86 1008.7
20260506204003 56 237 3.5 11.3 0.00 0.00 0.00 87 1008.6
20260506203504 56 212 4.3 14.8 0.00 0.00 0.00 87 1008.4
20260506203003 56 207 6.1 14.8 0.00 0.00 0.00 87 1008.1
20260506202713 56 212 6.1 14.8 0.00 0.00 0.00 87 1007.9
20260506202003 56 211 4.3 14.8 0.00 0.00 0.00 87 1008.0
20260506201503 56 206 5.2 15.6 0.00 0.00 0.00 87 1008.3
20260506201214 56 211 6.1 15.6 0.00 0.00 0.00 86 1008.3
20260506200503 56 220 7.0 21.7 0.00 0.00 0.00 86 1008.0
20260506200003 56 219 6.1 16.5 0.00 0.00 0.00 86 1008.2
20260506195503 56 216 7.0 15.6 0.00 0.00 0.00 86 1008.1
20260506195003 56 212 7.0 17.4 0.00 0.00 0.00 86 1008.3
20260506194503 56 207 7.8 18.2 0.00 0.00 0.00 85 1008.3
20260506194003 57 213 7.0 18.2 0.00 0.00 0.00 85 1008.6
20260506193503 57 212 5.2 15.6 0.00 0.00 0.00 85 1008.5
20260506193004 57 203 5.2 20.0 0.00 0.00 0.00 85 1008.7
20260506192503 57 210 6.1 20.0 0.00 0.00 0.00 85 1008.7
20260506192214 57 211 6.1 20.0 0.00 0.00 0.00 84 1008.7
20260506191503 57 215 7.0 20.0 0.00 0.00 0.00 85 1008.9
20260506191003 57 213 7.8 19.1 0.00 0.00 0.00 86 1008.9
20260506190503 57 211 7.0 20.0 0.00 0.00 0.00 85 1008.8
20260506190004 56 209 7.0 20.0 0.00 0.00 0.00 85 1008.8
20260506185713 56 206 7.0 20.0 0.00 0.00 0.00 86 1008.7
20260506185003 56 206 7.0 20.9 0.00 0.00 0.00 85 1008.8
20260506184503 57 207 6.1 20.9 0.00 0.00 0.00 85 1008.8
20260506184003 57 208 6.1 13.9 0.00 0.00 0.00 85 1009.0
20260506183503 57 217 6.1 13.9 0.00 0.00 0.00 85 1008.9
20260506183004 57 214 6.1 15.6 0.00 0.00 0.00 85 1008.9
20260506182503 57 210 7.0 15.6 0.00 0.00 0.00 85 1009.1
20260506182003 57 211 7.0 15.6 0.00 0.00 0.00 84 1009.2
20260506181503 57 212 6.1 21.7 0.00 0.00 0.00 84 1009.2
20260506181003 57 214 5.2 21.7 0.00 0.00 0.00 84 1009.3
20260506180503 57 208 5.2 17.4 0.00 0.00 0.00 84 1009.3
20260506180004 58 208 6.1 18.2 0.00 0.00 0.00 83 1009.2
20260506175503 58 207 7.0 18.2 0.00 0.00 0.00 83 1009.3
20260506175213 58 206 7.8 18.2 0.00 0.00 0.00 83 1009.3
20260506174503 58 210 6.1 14.8 0.00 0.00 0.00 82 1009.3
20260506174003 59 206 6.1 14.8 0.00 0.00 0.00 82 1009.4
20260506173505 59 205 5.2 14.8 0.00 0.00 0.00 81 1009.5
20260506173003 59 218 4.3 13.0 0.00 0.00 0.00 82 1009.5
20260506172714 59 213 4.3 13.0 0.00 0.00 0.00 81 1009.5
20260506172213 59 217 4.3 13.0 0.00 0.00 0.00 81 1009.4
20260506171503 60 202 6.1 18.2 0.00 0.00 0.00 81 1009.6
20260506171003 60 198 5.2 18.2 0.00 0.00 0.00 80 1009.5
20260506170503 60 197 3.5 10.4 0.00 0.00 0.00 81 1009.6
20260506170213 60 206 3.5 10.4 0.00 0.00 0.00 82 1009.6
20260506165503 60 213 5.2 13.9 0.00 0.00 0.00 81 1009.8
20260506165003 60 210 5.2 15.6 0.00 0.00 0.00 81 1009.9
20260506164503 59 206 5.2 15.6 0.00 0.00 0.00 82 1010.1
20260506164003 59 205 5.2 13.9 0.00 0.00 0.00 81 1010.1
20260506163503 59 208 5.2 17.4 0.00 0.00 0.00 82 1010.1
20260506163004 59 206 6.1 17.4 0.00 0.00 0.00 82 1010.1
20260506162503 59 206 6.1 17.4 0.00 0.00 0.00 81 1010.1
20260506162003 60 208 7.0 17.4 0.00 0.00 0.00 81 1010.2
20260506161503 60 212 7.8 16.5 0.00 0.00 0.00 80 1010.1
20260506161003 60 223 6.1 14.8 0.00 0.00 0.00 81 1010.2
20260506160503 60 224 5.2 13.9 0.00 0.00 0.00 82 1010.2
20260506160003 60 217 6.1 18.2 0.00 0.00 0.00 82 1010.1
20260506155503 60 215 7.0 18.2 0.00 0.00 0.00 82 1010.0